{"data":{"norad_id":68327,"epoch":"2026-05-24T20:34:02.442144Z","epoch_age_seconds":90844,"freshness":"FRESH","line1":"1 68327U 26059G   26144.85697271  .00013580  00000+0  46967-3 0  9991","line2":"2 68327  53.1595 354.0352 0001049  89.4466 270.6655 15.30207832  9842","mean_motion":15.30207832,"eccentricity":0.0001049,"inclination_deg":53.1595,"raan_deg":354.0352,"arg_perigee_deg":89.4466,"mean_anomaly_deg":270.6655,"bstar":0.00046967,"rev_number":984,"period_min":94.104864050911,"perigee_km":474.47277039978,"apogee_km":475.91059875781,"semimajor_km":6853.3286845788,"source":"CELESTRAK","updated_at":"2026-05-25T13:38:21.922441Z"}}